Showing default

PHISAT 2, 60470

Orbit data source: Space-Track

PHISAT 2, 60470 is a UK payload satellite in SSO that was launched on Fri, 16 Aug 2024 UTC via an FALCON 9 launch vehicle from the Air Force Western Test Range (AFWTR). Payload-class satellites include a variety of spacecraft equipped with specific instruments for various scientific and technological missions. These include communications satellites like Starlink; space stations such as the ISS; scientific satellites like the Hubble; Earth observation satellites from companies like Planet Labs, Umbra, and HawkEye 360; GPS; miniature CubeSats for education and research; and military/defense satellites.

Loading next visibility...
Identifier
60470, 2024-149C
Orbit
SSO
Country
Flag of UKUK
Related business
Manufacturer
Open Cosmos
Mission
Operational Civil Technology
Bus & Motor
CUBESAT 6U, Unknown motor
Mass
9 kg wet, 9 kg dry
Launch date (UTC)
2024-08-16 (2 years ago)
Launch vehicle
FALCON 9
Launch site
Air Force Western Test Range (AFWTR)
Object type
Payload
Rocket body
Debris
Shape & HBR
Box + 2 Pan, 0.7 m
Radar Cross Section
0.143 m², Medium (>0.1 m² and < 1m²)

Expand to show TLE details & history
Last TLE update: 19 hours ago

TLE from 19 hours ago
0 PHISAT 2
1 60470U 24149C   26126.21033048  .00006727  00000-0  23094-3 0  9998
2 60470  97.3756 205.6798 0002703  67.0069 293.1456 15.30462303 95576
Epoch: 2026-05-06T05:02Z
TLE epoch observation values (Epoch: 2026-05-06T05:02:52.553Z)
Latitude
-0.0001°
Longitude
-94.11325°
Altitude
476.81 km
Speed
7.628 km/s
True Right ascension
13h 42m 43s
True Declination
0° 00' 00"
Sunlit
Object was in full shadow at epoch
Visualization orbit readout
Latitude
Unknown
Longitude
Unknown
Altitude
Unknown
Speed
Unknown
Apparent Right ascension
Unknown
Apparent Declination
Unknown
Sunlit
N/A
Visualization observer readout
Local Sidereal Time
07:41:11
Azimuth
Unknown
Elevation
Unknown
Doppler factor
Unknown
Orbital elements
Apogee altitude
473.234 km
Perigee altitude
469.531 km
Semi-major axis
6,849.52 km
Eccentricity
0.00027
Inclination
97.3756°
RAAN
205.6798°
Arg. of periapsis
67.0069°
True anomaly
293.11712°
Mean anomaly
293.1456°
Eccentric anomaly
293.13136°
Mean motion
3.82871 °/min
Orbital period
94.03 mins
BSTAR
0.00023094
Loading maneuver chart data...
Computing Atmospheric mass density...
Loading historical data...
Loading historical data...
Loading historical data...
Loading historical data...
Loading historical data...
Loading historical data...
Loading historical data...

Documentation

Showing up to 5 results
|